Regional Weather Roundup
Issued by NWS

Home | Current Version | Previous Version | Graphics & Text | Print | Product List | Glossary Off
Versions: 1 2 3 4 5 6 7 8 9 10 11 12 13 14 15 16 17 18 19 20 21 22 23 24 25 26 27 28 29 30 31 32 33 34 35 36 37 38 39 40 41 42 43 44 45 46 47 48 49 50

004
ASUS43 KFSD 280410
RWRSD

WEATHER ROUNDUP FOR SOUTH DAKOTA
NATIONAL WEATHER SERVICE SIOUX FALLS SD
1100 PM CDT THU APR 27 2017

NOTE: "FAIR" INDICATES FEW OR NO CLOUDS BELOW 12,000 FEET WITH NO
SIGNIFICANT WEATHER AND/OR OBSTRUCTIONS TO VISIBILITY.


SDZ001>005-009-010-012>017-280500-
NORTHWEST AND NORTH CENTRAL SOUTH DAKOTA

CITY           SKY/WX    TMP DP  RH WIND       PRES   REMARKS
BUFFALO          N/A     39  27  62 E12       29.70R
FAITH            N/A     34  30  85 S8        29.77R WCI  27
MOBRIDGE       CLEAR     43  22  43 NE14      29.77R
$$

SDZ012>016-024>037-041>051-057-063-072>074-280500-
SOUTHWEST AND SOUTH CENTRAL SOUTH DAKOTA

CITY           SKY/WX    TMP DP  RH WIND       PRES   REMARKS
RAPID CTY ARPT CLOUDY    41  31  67 E8        29.73R
PIERRE         CLEAR     37  29  72 CALM      29.76R
CUSTER         LGT SNOW  31  28  89 NE14      29.67R FOG     WCI  21
ELLSWORTH AFB  CLOUDY    41  32  70 E6        29.74
PHILIP         CLOUDY    38  31  76 E6        29.75R
PINE RIDGE     LGT RAIN  41  40  96 E13       29.68R
SPEARFISH      MIX PCPN  37  32  81 E14G20    29.73R
WINNER         FAIR      39  31  72 E8        29.76R
$$

SDZ004>011-016>023-039-040-280500-
NORTHEAST SOUTH DAKOTA

CITY           SKY/WX    TMP DP  RH WIND       PRES   REMARKS
ABERDEEN       CLEAR     30  26  85 CALM      29.81R
WATERTOWN      CLEAR     33  28  81 S8        29.79R WCI  26
BROOKINGS      CLEAR     32  27  81 CALM      29.82R
SISSETON         N/A     38  32  79 W6        29.78R
$$

SDZ017-020-022-023-036>040-048>070-280500-
SOUTHEAST SOUTH DAKOTA

CITY           SKY/WX    TMP DP  RH WIND       PRES   REMARKS
SIOUX FALLS    CLEAR     35  29  78 NE9       29.83R WCI  28
HURON          CLEAR     35  29  78 SE6       29.81R
CHAMBERLAIN    CLEAR     39  31  72 NE7       29.79R
MITCHELL       CLEAR     36  29  75 E8        29.82R
YANKTON        CLEAR     41  30  65 N8        29.79R
$$

ABBREVIATIONS USED IN REMARKS
   TC - TEMPERATURE IN CELSIUS
  WCI - WIND CHILL INDEX
   HX - HEAT INDEX
  VSB - VISIBILITY





USA.gov is the U.S. government's official web portal to all federal, state and local government web resources and services.